ORBCOMM FM17 [-]

Last updated on Fri Dec 29 2023 00:02:53 GMT+0000 (Coordinated Universal Time)

1 25413U 98046A 23362.13696685 .00001384 00000+0 55584-3 0 9997 2 25413 44.9954 267.0839 0002946 22.3655 337.7319 14.32651064326265
UTC large
Height (km)
Speed (km/s)
/
Latitude / Longitude
Inclination (degrees)
Orbital Period (minutes)
Azimuth
Elevation
Range (km)
Doppler Factor

Next 0 passes for location: London (51.5072 / 0.1276)

Sorry there are no passes over London.